timestamp,wind_dir_avg,wind_spd_avg,wind_spd_max_dir,wind_spd_gust,battery_voltage,lat,long
2023-03-08 00:04:00+00:00,41.0,11.42,41.0,12.48,12.33,47.59359,-54.27349
2023-03-08 00:14:00+00:00,41.0,11.52,40.0,12.8,12.33,47.59359,-54.27349
2023-03-08 00:24:00+00:00,45.0,11.01,42.0,12.45,12.33,47.59359,-54.27349
2023-03-08 00:34:00+00:00,44.0,10.69,44.0,11.62,12.33,47.59359,-54.27349
2023-03-08 00:44:00+00:00,45.0,10.44,44.0,11.53,12.33,47.59359,-54.27349
2023-03-08 00:54:00+00:00,46.0,10.84,44.0,12.07,12.33,47.59359,-54.27349
2023-03-08 01:04:00+00:00,46.0,10.46,49.0,11.36,12.33,47.59359,-54.27349
2023-03-08 01:14:00+00:00,46.0,10.35,47.0,11.26,12.25,47.59359,-54.27349
2023-03-08 01:24:00+00:00,45.0,10.79,42.0,11.77,12.25,47.59359,-54.27349
2023-03-08 01:34:00+00:00,49.0,9.79,51.0,10.51,12.25,47.59359,-54.27349
2023-03-08 01:44:00+00:00,48.0,10.27,46.0,11.17,12.25,47.59359,-54.27349
2023-03-08 01:54:00+00:00,53.0,9.74,50.0,10.9,12.25,47.59359,-54.27349
2023-03-08 02:04:00+00:00,51.0,10.2,51.0,11.03,12.25,47.59359,-54.27349
2023-03-08 02:14:00+00:00,53.0,9.84,48.0,11.19,12.25,47.59359,-54.27349
2023-03-08 02:24:00+00:00,49.0,10.34,47.0,11.18,12.25,47.59359,-54.27349
2023-03-08 02:34:00+00:00,53.0,10.13,48.0,11.07,12.25,47.59359,-54.27349
2023-03-08 02:44:00+00:00,50.0,10.17,52.0,10.93,12.25,47.59359,-54.27349
2023-03-08 02:54:00+00:00,52.0,10.05,61.0,11.17,12.25,47.59359,-54.27349
2023-03-08 03:04:00+00:00,51.0,10.22,51.0,11.16,12.25,47.59359,-54.27349
2023-03-08 03:14:00+00:00,51.0,11.03,55.0,12.0,12.25,47.59359,-54.27349
2023-03-08 03:24:00+00:00,47.0,11.39,46.0,12.57,12.25,47.59359,-54.27349
2023-03-08 03:34:00+00:00,45.0,11.34,48.0,12.99,12.25,47.59359,-54.27349
2023-03-08 03:44:00+00:00,45.0,12.05,47.0,12.88,12.25,47.59359,-54.27349
2023-03-08 03:54:00+00:00,49.0,11.87,49.0,12.74,12.25,47.59359,-54.27349
2023-03-08 04:04:00+00:00,48.0,12.09,49.0,13.06,12.25,47.59359,-54.27349
2023-03-08 04:14:01+00:00,45.0,12.17,44.0,13.39,12.17,47.59359,-54.27349
2023-03-08 04:24:01+00:00,42.0,11.51,48.0,12.59,12.17,47.59359,-54.27349
2023-03-08 04:34:01+00:00,43.0,11.51,38.0,13.09,12.17,47.59359,-54.27349
2023-03-08 04:44:01+00:00,49.0,10.72,53.0,12.47,12.17,47.59359,-54.27349
2023-03-08 04:54:01+00:00,52.0,10.95,54.0,12.16,12.17,47.59359,-54.27349
2023-03-08 05:04:01+00:00,46.0,11.27,45.0,12.45,12.17,47.59359,-54.27349
2023-03-08 05:14:00+00:00,49.0,10.54,52.0,12.09,12.17,47.59359,-54.27349
2023-03-08 05:24:00+00:00,44.0,11.62,38.0,13.93,12.17,47.59359,-54.27349
2023-03-08 05:34:00+00:00,42.0,11.05,44.0,12.17,12.17,47.59359,-54.27349
2023-03-08 05:44:00+00:00,41.0,11.77,44.0,13.7,12.17,47.59359,-54.27349
2023-03-08 05:54:00+00:00,41.0,11.81,43.0,13.09,12.17,47.59359,-54.27349
2023-03-08 06:04:00+00:00,42.0,12.21,43.0,13.83,12.17,47.59359,-54.27349
2023-03-08 06:14:00+00:00,43.0,12.01,45.0,13.57,12.17,47.59359,-54.27349
2023-03-08 06:24:00+00:00,42.0,11.84,48.0,13.22,12.17,47.59359,-54.27349
2023-03-08 06:34:00+00:00,39.0,12.28,42.0,13.44,12.17,47.59359,-54.27349
2023-03-08 06:44:00+00:00,42.0,11.96,46.0,13.25,12.17,47.59359,-54.27349
2023-03-08 06:54:00+00:00,42.0,12.08,43.0,13.3,12.17,47.59359,-54.27349
2023-03-08 07:04:00+00:00,40.0,11.86,37.0,12.65,12.17,47.59359,-54.27349
2023-03-08 07:14:00+00:00,44.0,10.96,41.0,12.9,12.17,47.59359,-54.27349
2023-03-08 07:24:00+00:00,44.0,11.44,48.0,12.9,12.17,47.59359,-54.27349
2023-03-08 07:34:00+00:00,44.0,11.65,45.0,12.93,12.17,47.59359,-54.27349
2023-03-08 07:44:00+00:00,43.0,12.3,46.0,13.58,12.17,47.59359,-54.27349
2023-03-08 07:54:00+00:00,43.0,11.98,46.0,13.39,12.17,47.59359,-54.27349
2023-03-08 08:04:00+00:00,40.0,13.45,40.0,14.41,12.17,47.59359,-54.27349
2023-03-08 08:14:00+00:00,42.0,13.05,39.0,14.1,12.09,47.59359,-54.27349
2023-03-08 08:24:00+00:00,38.0,13.35,38.0,14.67,12.09,47.59359,-54.27349
2023-03-08 08:34:00+00:00,43.0,12.38,45.0,13.4,12.09,47.59359,-54.27349
2023-03-08 08:44:00+00:00,43.0,12.51,46.0,13.4,12.09,47.59359,-54.27349
2023-03-08 08:54:00+00:00,42.0,11.98,42.0,14.02,12.09,47.59359,-54.27349
2023-03-08 09:04:00+00:00,35.0,12.8,33.0,14.69,12.09,47.59359,-54.27349
2023-03-08 09:14:00+00:00,42.0,11.79,43.0,13.38,12.09,47.59359,-54.27349
2023-03-08 09:24:00+00:00,44.0,12.39,44.0,13.8,12.09,47.59359,-54.27349
2023-03-08 09:34:00+00:00,35.0,12.12,35.0,14.1,12.09,47.59359,-54.27349
2023-03-08 09:44:00+00:00,39.0,11.53,32.0,13.46,12.09,47.59359,-54.27349
2023-03-08 09:54:00+00:00,34.0,11.97,39.0,14.41,12.09,47.59359,-54.27349
2023-03-08 10:04:00+00:00,44.0,11.79,48.0,13.31,12.09,47.59359,-54.27349
2023-03-08 10:14:01+00:00,43.0,12.41,44.0,13.65,12.09,47.59359,-54.27349
2023-03-08 10:24:01+00:00,43.0,11.83,45.0,13.63,12.09,47.59359,-54.27349
2023-03-08 10:34:01+00:00,42.0,13.02,39.0,15.15,12.09,47.59359,-54.27349
2023-03-08 10:44:01+00:00,41.0,13.28,39.0,14.86,12.09,47.59359,-54.27349
2023-03-08 10:54:01+00:00,38.0,13.69,33.0,14.92,12.09,47.59359,-54.27349
2023-03-08 11:04:01+00:00,41.0,13.23,35.0,15.01,12.09,47.59359,-54.27349
2023-03-08 11:14:00+00:00,41.0,13.51,37.0,15.71,12.17,47.59359,-54.27349
2023-03-08 11:24:00+00:00,39.0,13.57,38.0,14.59,12.17,47.59359,-54.27349
2023-03-08 11:34:00+00:00,37.0,13.06,34.0,14.74,12.17,47.59359,-54.27349
2023-03-08 11:44:00+00:00,35.0,13.1,32.0,14.37,12.17,47.59359,-54.27349
2023-03-08 11:54:00+00:00,36.0,13.25,33.0,14.73,12.17,47.59359,-54.27349
2023-03-08 12:04:00+00:00,36.0,12.8,32.0,14.06,12.17,47.59359,-54.27349
2023-03-08 13:14:00+00:00,34.0,13.37,38.0,16.79,13.37,47.59359,-54.27349
2023-03-08 13:24:00+00:00,32.0,13.94,30.0,16.49,13.37,47.59359,-54.27349
2023-03-08 13:34:00+00:00,35.0,13.63,32.0,14.98,13.37,47.59359,-54.27349
2023-03-08 13:44:00+00:00,30.0,14.44,32.0,15.86,13.37,47.59359,-54.27349
2023-03-08 13:54:00+00:00,36.0,12.95,43.0,15.76,13.37,47.59359,-54.27349
2023-03-08 14:04:00+00:00,34.0,13.1,44.0,15.47,13.37,47.59359,-54.27349
2023-03-08 14:14:00+00:00,34.0,12.91,32.0,14.81,13.6,47.59359,-54.27349
2023-03-08 14:24:00+00:00,32.0,14.17,40.0,16.45,13.6,47.59359,-54.27349
2023-03-08 14:34:00+00:00,36.0,12.77,39.0,15.54,13.6,47.59359,-54.27349
2023-03-08 14:44:00+00:00,43.0,11.48,36.0,12.98,13.6,47.59359,-54.27349
2023-03-08 14:54:00+00:00,37.0,12.53,33.0,14.81,13.6,47.59359,-54.27349
2023-03-08 15:04:00+00:00,37.0,12.52,36.0,13.66,13.6,47.59359,-54.27349
2023-03-08 15:14:01+00:00,36.0,12.59,39.0,14.23,13.76,47.59359,-54.27349
2023-03-08 15:24:01+00:00,39.0,13.07,42.0,14.45,13.76,47.59359,-54.27349
2023-03-08 15:34:01+00:00,40.0,13.19,31.0,14.89,13.76,47.59359,-54.27349
2023-03-08 15:44:01+00:00,35.0,13.97,32.0,15.45,13.76,47.59359,-54.27349
2023-03-08 15:54:01+00:00,35.0,13.8,32.0,15.14,13.76,47.59359,-54.27349
2023-03-08 16:04:01+00:00,36.0,14.42,37.0,15.9,13.76,47.59359,-54.27349
2023-03-08 16:14:00+00:00,35.0,14.22,37.0,15.68,13.68,47.59359,-54.27349
2023-03-08 16:24:00+00:00,36.0,14.27,34.0,15.73,13.68,47.59359,-54.27349
2023-03-08 16:34:00+00:00,35.0,13.73,30.0,14.8,13.68,47.59359,-54.27349
2023-03-08 16:44:00+00:00,33.0,13.53,32.0,15.02,13.68,47.59359,-54.27349
2023-03-08 16:54:00+00:00,33.0,13.89,34.0,16.13,13.68,47.59359,-54.27349
2023-03-08 17:04:00+00:00,29.0,15.06,31.0,16.52,13.68,47.59359,-54.27349
2023-03-08 17:14:00+00:00,31.0,14.6,34.0,17.0,13.68,47.59359,-54.27349
2023-03-08 17:24:00+00:00,33.0,14.08,43.0,16.31,13.68,47.59359,-54.27349
2023-03-08 17:34:00+00:00,29.0,15.4,37.0,17.86,13.68,47.59359,-54.27349
2023-03-08 17:44:00+00:00,31.0,13.93,35.0,16.69,13.68,47.59359,-54.27349
2023-03-08 17:54:00+00:00,37.0,13.41,36.0,14.71,13.68,47.59359,-54.27349
2023-03-08 18:04:00+00:00,30.0,14.17,32.0,17.03,13.68,47.59359,-54.27349
2023-03-08 18:14:01+00:00,34.0,13.49,41.0,14.47,13.68,47.59359,-54.27349
2023-03-08 18:24:01+00:00,32.0,14.03,38.0,15.09,13.68,47.59359,-54.27349
2023-03-08 18:34:01+00:00,35.0,13.75,32.0,15.35,13.68,47.59359,-54.27349
2023-03-08 18:44:01+00:00,37.0,13.42,33.0,15.49,13.68,47.59359,-54.27349
2023-03-08 18:54:01+00:00,31.0,13.85,28.0,15.35,13.68,47.59359,-54.27349
2023-03-08 19:04:01+00:00,33.0,13.91,39.0,16.27,13.68,47.59359,-54.27349
2023-03-08 19:14:00+00:00,30.0,14.62,31.0,16.32,13.6,47.59359,-54.27349
2023-03-08 19:24:00+00:00,28.0,15.1,29.0,17.17,13.6,47.59359,-54.27349
2023-03-08 19:34:00+00:00,32.0,14.37,37.0,16.76,13.6,47.59359,-54.27349
2023-03-08 19:44:00+00:00,31.0,14.74,42.0,18.07,13.6,47.59359,-54.27349
2023-03-08 19:54:00+00:00,32.0,14.47,27.0,15.81,13.6,47.59359,-54.27349
2023-03-08 20:04:00+00:00,31.0,14.39,34.0,16.04,13.6,47.59359,-54.27349
2023-03-08 20:14:00+00:00,30.0,14.81,35.0,16.43,13.68,47.59359,-54.27349
2023-03-08 20:24:00+00:00,29.0,14.8,30.0,16.98,13.68,47.59359,-54.27349
2023-03-08 20:34:00+00:00,32.0,15.35,25.0,17.47,13.68,47.59359,-54.27349
2023-03-08 20:44:00+00:00,28.0,15.72,27.0,17.6,13.68,47.59359,-54.27349
2023-03-08 20:54:00+00:00,29.0,14.79,27.0,17.07,13.68,47.59359,-54.27349
2023-03-08 21:04:00+00:00,31.0,14.48,31.0,15.8,13.68,47.59359,-54.27349
2023-03-08 21:14:00+00:00,30.0,14.79,29.0,18.45,13.13,47.59359,-54.27349
2023-03-08 21:24:00+00:00,30.0,14.81,32.0,18.42,13.13,47.59359,-54.27349
2023-03-08 21:34:00+00:00,29.0,14.23,33.0,17.49,13.13,47.59359,-54.27349
2023-03-08 21:44:00+00:00,31.0,15.72,36.0,18.9,13.13,47.59359,-54.27349
2023-03-08 21:54:00+00:00,33.0,13.7,29.0,14.98,13.13,47.59359,-54.27349
2023-03-08 22:04:00+00:00,32.0,14.94,46.0,20.73,13.13,47.59359,-54.27349
2023-03-08 22:14:00+00:00,31.0,14.68,28.0,16.39,12.49,47.59359,-54.27349
2023-03-08 22:24:00+00:00,33.0,13.98,28.0,16.16,12.49,47.59359,-54.27349
2023-03-08 22:34:00+00:00,33.0,13.88,27.0,16.59,12.49,47.59359,-54.27349
2023-03-08 22:44:00+00:00,34.0,13.98,29.0,15.92,12.49,47.59359,-54.27349
2023-03-08 22:54:00+00:00,30.0,14.09,33.0,15.85,12.49,47.59359,-54.27349
2023-03-08 23:04:00+00:00,31.0,14.21,35.0,15.33,12.49,47.59359,-54.27349
2023-03-08 23:14:00+00:00,36.0,13.45,35.0,15.94,12.33,47.59359,-54.27349
2023-03-08 23:24:00+00:00,30.0,14.07,30.0,15.65,12.33,47.59359,-54.27349
2023-03-08 23:34:00+00:00,31.0,13.94,29.0,15.54,12.33,47.59359,-54.27349
2023-03-08 23:44:00+00:00,31.0,13.95,41.0,16.25,12.33,47.59359,-54.27349
2023-03-08 23:54:00+00:00,32.0,13.9,29.0,16.39,12.33,47.59359,-54.27349
